Simultaneous Nadir Overpasses (SNOs) Predictions

Prediction of SNOs between LANDSAT-8 and METOP-B Satellite Orbit:

Table of predicted SNOs for the next 14.0 days since TLE Epoch: 2/20/2015
Index Date (LANDSAT-8) Time (LANDSAT-8) Lat,Lon (LANDSAT-8) SZA (LANDSAT-8 ) Date (METOP-B) Time (METOP-B) Lat,Lon (METOP-B) SZA (METOP-B ) Distance(km) Time Diff (sec)
1 02/20/2015 20:42:24 81.00, -92.85 93.30 02/20/2015 20:41:10 81.02, -92.74 93.29 2.54 74
2 02/20/2015 21:31:49 -81.05, 75.47 86.62 02/20/2015 21:31:48 -81.05, 75.50 86.62 0.68 1
3 02/20/2015 22:21:14 81.08,-116.47 93.43 02/20/2015 22:22:27 81.08,-116.34 93.47 2.36 73
4 02/23/2015 16:16:37 81.03, -26.10 92.33 02/23/2015 16:15:34 81.03, -26.03 92.32 1.16 63
5 02/23/2015 17:06:03 -81.05, 141.88 87.64 02/23/2015 17:06:13 -81.05, 141.86 87.63 0.45 10
6 02/26/2015 11:50:51 81.04, 40.53 91.33 02/26/2015 11:49:59 81.04, 40.62 91.32 1.54 52
7 02/26/2015 12:40:17 -81.06,-151.48 88.64 02/26/2015 12:40:38 -81.06,-151.46 88.63 0.38 21
8 03/01/2015 07:25:05 81.04, 107.02 90.29 03/01/2015 07:24:25 81.03, 106.85 90.25 3.23 40
9 03/01/2015 08:14:31 -81.07, -84.97 89.67 03/01/2015 08:15:03 -81.07, -84.82 89.65 2.60 32
10 03/04/2015 02:59:18 81.04, 173.38 89.22 03/04/2015 02:58:49 81.04, 173.40 89.21 0.25 29




NCC Satellite Simultaneous Nadir Overpasses (SNOs) Prediction Service
